SCP
1 0 0 0 0 0 0 0 1 1 2 3 4 5 6 6 4 3 3 5 6 8 10 13 14 14 13 13 13 12 10 9 9 8 8 7 6 6 6 6 6 7 8 8
0 0 0 0 0 0 0 1 1 1 2 3 5 6 7 7 6 5 5 6 8 10 13 14 13 13 13 12 10 9 9 9 9 9 9 9 8 8 8 8 8 8 9 9
0 0 0 1 1 1 1 2 2 2 2 4 6 7 8 8 7 7 7 8 10 13 14 14 13 13 13 12 9 8 8 7 8 10 12 12 11 11 10 10 10 11 11 11
0 0 1 1 1 1 2 3 3 3 3 5 6 7 7 7 7 7 8 10 13 15 14 12 12 13 12 11 10 9 8 7 7 10 13 15 14 13 12 12 12 13 14 14
0 0 1 1 1 2 3 3 3 3 3 4 5 5 5 6 8 8 9 12 16 17 14 12 11 10 11 11 11 10 8 7 8 11 15 17 15 13 13 13 13 14 15 15
0 0 1 1 2 2 2 2 2 3 3 4 4 5 5 6 9 12 13 16 17 15 13 12 10 10 11 11 10 9 8 9 10 13 16 15 13 12 12 13 13 13 14 15
1 1 1 1 2 2 3 3 3 3 3 4 4 5 6 8 10 14 16 16 15 13 12 11 10 11 11 11 10 9 9 10 11 13 14 13 11 11 11 11 11 10 10 11
1 1 2 2 3 3 3 3 4 4 3 4 5 6 8 10 11 12 13 13 13 13 12 9 9 10 10 10 9 9 11 11 11 12 12 11 10 10 9 8 7 6 6 6
2 2 2 3 3 3 3 3 4 4 3 3 5 6 8 12 14 12 10 9 10 11 10 8 9 9 9 10 10 10 11 12 12 12 12 11 9 8 7 6 5 5 5 5
2 2 2 2 3 3 2 2 3 3 3 3 4 5 7 11 16 17 13 10 10 9 8 8 10 11 11 11 11 11 12 12 13 13 12 10 8 6 5 5 5 5 5 5
2 2 1 1 1 1 1 2 2 2 2 3 3 3 5 9 15 19 19 17 16 14 11 11 12 12 12 12 12 13 13 13 13 12 11 10 7 5 4 3 3 3 4 4
2 2 2 1 1 1 1 1 2 2 3 2 2 3 4 7 11 16 19 22 24 22 18 14 12 11 11 11 12 13 13 12 10 9 9 8 7 5 3 2 2 1 2 2
3 3 2 2 1 1 1 1 2 2 3 2 2 3 4 6 8 11 13 18 24 26 22 14 10 9 9 10 11 11 10 8 7 7 7 7 7 7 5 4 2 1 1 1
4 3 2 2 1 1 1 1 1 2 2 2 2 2 3 5 7 8 9 12 17 21 19 12 8 8 9 11 11 10 8 7 6 6 7 8 10 10 9 7 5 3 2 1
4 3 3 2 2 1 1 1 3 4 4 3 3 3 3 5 6 7 8 10 13 14 14 11 9 10 10 11 10 8 7 7 7 7 8 10 12 12 10 8 6 4 3 2
4 4 4 4 4 3 3 4 6 8 8 7 6 5 5 6 7 7 7 9 11 12 11 11 10 10 10 9 8 6 6 6 6 7 8 9 11 12 10 7 5 4 3 3
5 5 5 5 6 6 6 7 9 10 11 10 9 7 6 6 7 7 6 7 9 10 10 10 8 8 7 7 6 5 4 4 4 5 6 7 8 9 8 6 5 4 4 3
3 4 5 5 5 6 6 6 7 9 11 11 9 8 6 6 8 7 6 6 7 8 8 7 6 5 5 5 4 3 3 2 2 3 3 4 6 7 6 6 6 5 4 3
2 3 3 3 3 3 4 4 6 8 10 10 8 7 6 7 7 7 6 6 6 7 6 6 5 4 4 4 3 2 2 1 1 2 2 3 5 6 6 6 7 7 5 3
2 2 2 2 2 2 2 4 6 7 7 6 5 5 6 6 6 6 6 6 6 5 5 4 4 4 4 3 2 1 1 1 1 1 2 3 6 8 8 8 9 9 6 4
4 3 2 2 2 2 2 3 4 5 4 3 4 5 6 5 4 5 5 5 5 4 4 4 4 4 4 3 3 2 2 2 2 3 4 6 8 10 10 9 9 9 8 7
6 5 3 2 2 1 2 3 3 3 3 3 4 6 5 4 3 4 4 4 4 3 3 3 3 2 2 2 3 4 3 3 4 5 6 8 9 10 9 8 8 8 9 9
7 6 4 2 1 2 3 3 3 3 3 4 6 7 5 3 3 3 3 3 3 2 2 2 1 1 0 1 3 4 4 5 5 6 7 8 9 8 6 5 6 6 7 8
6 7 5 3 2 2 3 3 3 3 4 5 6 5 4 3 3 2 2 2 2 1 1 1 0 0 0 1 2 4 5 5 5 6 6 6 6 6 4 4 5 6 7 6
5 5 4 3 3 3 3 3 3 3 4 4 4 3 2 2 3 3 2 2 1 1 1 1 0 0 0 1 2 3 3 3 3 3 3 3 4 4 3 3 4 6 6 5
4 4 4 4 4 4 3 2 2 2 2 2 2 1 2 2 3 3 3 2 1 1 1 1 1 0 1 1 2 2 1 1 1 1 1 2 2 2 3 2 3 3 3 3
4 4 4 4 4 3 3 2 2 1 1 1 1 1 2 2 3 3 3 2 1 1 1 1 1 1 1 1 2 1 1 0 0 1 1 1 1 2 2 2 2 1 1 1
Wind_Speed
12 12 12 12 12 12 10 9 8 6 3 6 5 5 6 7 7 7 7 8 8 7 7 6 6 5 5 5 4 5 5 5 5 4 3 2 2 1 1 1 1 1 1 1
11 13 14 13 11 12 12 11 9 5 3 3 7 6 6 6 7 7 6 7 8 8 7 6 6 6 5 4 4 4 4 4 4 3 3 2 2 2 1 1 1 1 1 1
11 12 12 14 12 11 10 11 9 5 3 5 6 8 7 7 6 6 6 5 6 7 6 6 6 6 6 5 4 4 4 3 3 3 3 2 2 2 1 1 1 1 1 1
10 11 14 9 7 9 8 7 5 1 3 5 6 7 7 6 5 5 6 6 6 7 6 6 7 7 5 5 5 5 4 3 3 3 3 2 2 2 1 1 1 1 1 1
9 11 11 10 7 7 7 4 3 3 3 3 6 7 6 6 5 4 6 6 6 6 6 6 6 7 6 5 4 4 4 3 3 3 2 2 2 2 2 1 1 2 1 1
10 11 11 6 4 4 5 2 5 6 4 2 3 3 4 6 5 5 6 5 5 5 5 6 6 6 6 5 5 4 3 3 2 2 2 2 2 2 2 2 2 2 1 1
11 11 7 4 4 3 4 2 6 5 4 3 3 2 4 6 6 5 5 5 5 5 5 5 6 6 5 5 4 4 3 3 2 2 2 3 2 1 1 2 2 2 2 2
8 10 6 6 4 3 4 5 5 5 5 4 6 6 6 7 6 5 4 4 4 5 4 4 5 5 5 4 4 3 3 3 2 2 2 1 1 1 1 1 2 2 2 2
2 1 2 5 6 5 4 4 4 4 4 4 5 5 6 6 5 4 4 4 4 4 4 4 4 4 4 3 3 3 3 3 2 2 1 1 1 1 1 2 2 2 2 2
2 1 2 3 4 4 3 3 4 3 3 3 4 5 6 5 4 4 3 4 4 4 4 4 4 3 3 3 3 3 3 3 3 3 2 2 1 1 1 1 1 1 1 1
3 0 1 3 3 3 4 4 4 3 4 4 4 4 4 4 3 3 2 2 3 3 3 4 4 4 3 3 3 3 3 3 3 3 3 2 2 1 1 1 2 2 1 1
2 2 0 2 4 4 3 3 3 2 2 3 3 3 3 3 3 2 2 2 3 3 4 4 4 4 3 3 3 3 3 3 3 2 2 3 3 2 1 1 2 2 1 1
4 4 4 3 2 4 4 3 2 2 2 3 4 3 2 3 2 2 2 2 3 3 3 4 4 4 4 4 4 3 3 3 2 2 2 2 3 3 3 2 2 3 4 3
4 4 3 3 2 3 4 3 1 1 2 2 3 2 2 2 2 2 1 1 2 2 3 4 4 4 3 3 3 3 3 3 3 2 2 2 2 2 2 2 3 3 4 6
3 3 3 2 3 3 3 2 2 1 1 2 2 2 2 1 1 1 0 1 2 2 2 2 3 3 3 3 3 3 3 2 2 2 3 3 2 3 2 2 1 1 2 3
3 4 4 3 3 4 3 2 2 2 1 1 1 1 1 1 1 1 0 1 1 2 2 1 2 2 2 3 3 2 2 3 3 3 4 3 2 2 1 1 1 1 1 1
4 4 4 3 4 3 2 2 2 2 1 0 1 1 0 1 1 0 1 2 1 1 1 1 2 1 2 2 3 2 2 2 3 3 3 2 2 2 2 2 2 1 1 1
4 4 4 3 3 3 3 2 3 3 2 1 0 0 1 1 1 1 1 1 1 1 2 2 2 2 3 2 2 2 2 2 3 3 2 1 2 2 2 2 2 2 1 2
2 2 2 2 3 3 4 3 2 1 0 1 2 2 1 1 1 1 1 1 2 2 2 1 2 3 3 1 1 2 3 3 2 2 1 1 2 4 3 2 1 1 1 0
2 2 2 2 3 3 3 3 2 1 1 2 1 1 1 1 1 2 2 2 2 1 1 1 2 3 3 2 3 3 4 3 3 2 1 2 2 2 2 2 2 1 0 0
2 2 2 2 3 3 3 3 2 2 2 2 2 2 1 1 2 2 2 2 1 1 0 1 2 3 2 1 4 5 3 3 2 1 1 1 1 2 2 1 1 1 0 1
2 3 2 2 3 3 3 3 3 3 2 2 2 2 2 3 3 3 3 2 1 1 1 2 2 0 0 1 3 4 3 2 1 1 1 1 1 1 1 2 1 1 1 1
3 3 3 2 2 3 4 4 3 2 3 3 3 3 3 2 2 2 2 1 1 2 1 1 0 2 1 2 3 3 2 2 1 1 1 0 0 0 0 1 1 1 1 1
3 3 3 2 3 3 3 4 3 2 2 3 3 3 3 3 2 2 1 2 2 2 1 1 3 2 2 3 3 3 2 2 1 1 1 0 0 0 0 0 1 1 1 1
3 3 3 3 3 3 3 3 2 2 3 2 2 2 2 2 2 1 1 1 3 3 2 2 4 3 3 3 2 1 1 0 0 1 1 1 1 0 0 1 1 1 2 2
2 2 2 2 2 2 2 2 1 1 2 2 1 1 1 1 2 1 1 2 2 2 2 1 2 3 3 3 1 1 1 1 1 0 0 1 1 1 1 1 1 1 1 1
3 2 2 2 2 2 2 2 2 2 2 1 1 1 1 1 1 0 0 1 1 1 1 1 2 2 2 2 1 1 1 1 1 1 0 0 1 1 2 2 2 2 2 2
Wind_Direction
254 262 264 261 262 266 267 272 277 276 242 186 164 144 147 149 146 146 153 151 143 139 133 129 128 130 135 141 138 137 142 153 153 163 165 155 165 160 177 218 207 189 236 275
258 256 259 267 270 269 266 263 262 251 264 109 119 128 143 144 156 159 157 149 142 136 135 138 140 141 140 143 138 130 136 147 146 154 161 167 165 161 197 230 262 248 241 265
269 266 260 256 259 266 269 272 267 258 207 146 140 145 149 153 155 139 135 138 143 139 143 149 149 145 152 149 147 143 147 152 150 155 164 170 177 165 200 220 230 265 276 273
266 268 263 261 270 271 274 293 312 31 105 134 137 130 128 130 135 139 142 151 144 145 155 162 155 147 148 156 153 153 156 161 168 170 175 170 174 177 199 211 221 246 257 248
263 264 261 266 271 272 267 278 353 59 72 92 107 117 111 109 124 140 140 137 140 154 159 147 145 144 146 162 156 157 162 174 184 184 177 177 184 193 207 216 238 250 232 205
250 261 263 272 294 325 292 234 42 62 59 82 113 142 119 109 105 110 120 126 134 142 134 132 136 142 149 157 153 161 164 171 172 177 176 187 199 210 211 213 224 230 195 190
249 256 258 309 315 301 270 65 44 59 57 48 71 71 108 109 101 94 97 110 115 118 119 127 134 136 144 152 159 155 150 150 159 168 183 185 184 196 215 222 208 217 202 195
253 258 265 353 352 30 69 71 57 58 54 50 74 93 98 101 102 103 107 109 122 123 120 122 129 138 147 151 145 138 145 155 166 174 205 168 167 199 212 225 228 224 208 209
265 278 33 29 47 52 52 66 67 57 59 77 97 105 105 105 105 113 122 125 126 123 121 124 129 145 153 144 140 144 151 157 167 173 188 162 196 211 218 209 232 221 212 229
325 94 69 58 54 58 55 58 57 46 63 88 93 102 107 110 112 112 115 127 124 129 139 136 133 136 134 133 144 155 164 171 184 189 185 167 198 202 217 220 247 256 243 251
260 22 47 51 37 38 63 62 53 44 55 67 77 84 97 99 104 114 119 127 135 140 148 144 137 132 141 149 153 167 185 196 211 207 186 190 196 209 195 166 191 229 273 300
297 69 37 55 26 3 24 64 67 51 65 75 83 99 106 108 110 123 136 135 148 156 160 153 148 150 158 165 173 189 209 210 217 218 202 203 196 187 87 186 177 177 173 193
24 25 37 28 16 352 344 15 61 60 68 82 83 92 107 114 129 137 139 151 158 163 167 163 163 165 176 180 182 197 224 227 225 230 226 227 213 205 201 203 204 216 211 204
22 12 13 358 353 344 327 330 348 80 66 81 96 109 107 107 117 121 137 168 163 169 179 176 177 176 180 174 177 205 230 238 239 237 243 240 237 240 226 213 206 211 207 207
354 334 324 327 315 297 300 314 322 232 133 98 103 102 94 107 122 124 153 180 163 176 171 172 182 181 180 174 186 210 218 242 256 262 250 244 246 247 243 232 233 214 165 178
300 291 283 275 278 285 285 279 274 275 136 105 94 93 88 85 98 109 178 145 182 197 156 148 205 197 182 188 203 211 197 209 230 256 258 248 249 254 249 245 242 219 205 152
259 266 274 274 279 285 294 299 301 304 314 5 60 48 92 109 120 161 213 190 189 187 191 198 210 191 212 214 218 227 222 205 222 252 269 287 286 281 272 262 257 252 209 152
258 269 281 289 291 298 284 257 253 255 262 269 257 193 222 205 209 246 252 210 200 217 225 206 188 213 218 215 238 259 250 224 220 237 255 268 289 286 269 262 258 255 219 177
244 256 262 273 289 291 287 278 266 267 272 257 254 253 254 235 228 247 232 210 230 232 230 194 188 225 230 207 233 253 256 244 221 216 226 229 256 260 257 254 263 270 277 175
246 255 275 285 283 277 284 287 260 222 225 248 253 262 270 274 257 243 219 236 247 274 270 194 210 244 240 205 234 245 245 246 238 206 207 256 272 274 274 270 270 267 218 262
270 270 277 292 301 295 293 293 278 251 245 249 237 237 242 259 244 234 242 247 219 96 263 201 228 246 245 229 243 257 250 252 253 211 197 241 283 302 306 314 320 313 282 265
313 304 302 307 302 304 305 292 278 270 267 261 251 245 246 243 229 221 228 237 221 150 228 249 254 321 56 267 257 265 265 266 266 257 248 277 308 319 322 335 340 337 321 318
321 305 288 281 283 288 288 283 276 273 274 270 262 254 247 250 252 244 240 225 213 163 219 273 89 109 130 262 265 268 268 262 260 257 251 223 204 92 348 329 325 323 311 341
303 294 284 272 275 280 282 280 274 264 262 267 256 248 249 245 240 232 217 175 167 168 226 140 153 162 221 246 256 257 266 262 250 270 284 228 176 193 131 326 321 338 344 2
289 285 279 277 266 267 261 260 248 229 232 236 233 230 236 237 234 232 241 197 161 172 195 177 180 199 224 257 256 245 239 304 20 334 338 2 324 288 73 33 360 348 353 5
265 265 261 259 263 273 269 277 274 257 247 250 246 232 229 228 235 222 200 191 188 186 199 194 187 204 238 254 244 233 228 180 167 226 28 52 30 49 75 61 42 12 2 11
243 243 240 252 259 252 248 258 263 259 256 264 288 279 267 270 261 240 249 221 203 192 194 203 203 209 229 243 237 215 226 219 201 182 146 127 90 74 70 56 41 23 14 23